Regional Weather Roundup
Issued by NWS Sioux Falls, SD

Home | Current Version | Previous Version | Text Only | Print | Product List | Glossary On
Versions: 1 2 3 4 5 6 7 8 9 10 11 12 13 14 15 16 17 18 19 20 21 22 23 24 25 26 27 28 29 30 31 32 33 34 35 36 37 38 39 40 41 42 43 44 45 46 47 48 49 50
000
ASUS43 KFSD 052302
RWRFSD

WEATHER ROUNDUP FOR SE SOUTH DAKOTA/SW MINNESOTA/NW IOWA
NATIONAL WEATHER SERVICE SIOUX FALLS SD
500 PM CST MON DEC 05 2016

NOTE: "FAIR" INDICATES FEW OR NO CLOUDS BELOW 12,000 FEET WITH NO
SIGNIFICANT WEATHER AND OR OBSTRUCTIONS TO VISIBILITY.


SDZ038>040-050-052>070-060000-
SOUTHEAST SOUTH DAKOTA

CITY           SKY/WX    TMP DP  RH WIND       PRES   REMARKS
CHAMBERLAIN    NOT AVBL
HURON          CLOUDY    33  28  81 NW24G36   29.59R WCI  20
MADISON        FAIR      36  32  87 W18G33    29.54R
MITCHELL       CLOUDY    35  29  78 NW23G32   29.65R WCI  23
SIOUX FALLS    MOCLDY    39  32  76 W15G31    29.59R
WINNER         LGT SNOW  28  23  81 NW29G44   29.73R WCI  12
YANKTON        CLOUDY   N/A N/A N/A W21G30    29.65R
$$

MNZ071-072-080-081-089-090-097-098-060000-
SOUTHWEST MINNESOTA

CITY           SKY/WX    TMP DP  RH WIND       PRES   REMARKS
FAIRMONT       CLOUDY    42  36  79 S23G33    29.59F
JACKSON        CLOUDY    41  32  70 S18G26    29.60R
LUVERNE        PTCLDY    39  32  75 S15G21    29.57R
MARSHALL       NOT AVBL
MONTEVIDEO     MOCLDY    39  36  87 SW9       29.52S
PIPESTONE      CLOUDY    41  36  81 SW16      29.52S
REDWOOD FALLS  CLOUDY    42  34  73 S9        29.56R
TRACY          CLOUDY    42  36  78 SW21G31   29.52R
WINDOM         CLOUDY    43  34  70 S17G23    29.57R
WORTHINGTON    PTCLDY    41  34  76 S21G33    29.57R
$$

IAZ001>003-012>014-020>022-031-032-NEZ013-014-SDZ071-060000-
NORTHWEST IOWA

CITY           SKY/WX    TMP DP  RH WIND       PRES   REMARKS
CHEROKEE       CLOUDY    44  37  78 SW10      29.64R
DENISON        CLOUDY    45  37  76 S17       29.63R
ESTHERVILLE    CLOUDY    42  37  82 S22G33    29.60R
LE MARS        CLOUDY    45  36  70 S12G18    29.63S
ORANGE CITY    PTCLDY    43  37  81 S16       29.60S
SHELDON        PTCLDY    43  37  81 S16G23    29.59R
SIOUX CITY     CLOUDY    45  37  73 SW6       29.64R
SPENCER        CLOUDY    43  36  76 S21       29.63R
STORM LAKE     CLOUDY    43  37  81 S17G26    29.63R
$$

ABBREVIATIONS USED IN REMARKS
   TC - TEMPERATURE IN CELSIUS
  WCI - WIND CHILL INDEX
   HX - HEAT INDEX
  VSB - VISIBILITY





USA.gov is the U.S. government's official web portal to all federal, state and local government web resources and services.